COSMOS 2429 1 32052U 07038A 21019.09960480 .00000015 00000-0 10438-6 0 9997 2 32052 82.9788 221.2526 0038302 352.0937 7.9610 13.74934413670310 SL-8 R/B 1 32053U 07038B 21018.89340015 -.00000077 00000-0 -94200-4 0 9998 2 32053 82.9768 212.1587 0026067 339.3686 132.4045 13.76305184670921